This is the latest recevied weather packets stored in our database for station/object KG5APU. If no packets are shown the sender has not sent any weather packets the latest 10 day(s).
| Time | Temp. | Humidity | Pressure | Rain* | Wind** | Luminosity | Snow |
|---|---|---|---|---|---|---|---|
| 1788553022 | 36.11° C | 46% | 1013.5 hPa | 0 mm | - | 666 W/m² | - |
| 1788552422 | 36.67° C | 47% | 1013.5 hPa | 0 mm | - | 682 W/m² | - |
| 1788551821 | 36.67° C | 47% | 1013.8 hPa | 0 mm | - | 694 W/m² | - |
| 1788551221 | 36.67° C | 46% | 1013.6 hPa | 0 mm | - | 707 W/m² | - |
| 1788550617 | 36.11° C | 47% | 1014 hPa | 0 mm | - | 719 W/m² | - |
| 1788550013 | 35.56° C | 50% | 1013.9 hPa | 0 mm | - | 734 W/m² | - |
| 1788549411 | 35.56° C | 50% | 1014.1 hPa | 0 mm | - | 741 W/m² | - |
| 1788548809 | 35.56° C | 50% | 1014.5 hPa | 0 mm | - | 753 W/m² | - |
| 1788548207 | 35.56° C | 51% | 1014.3 hPa | 0 mm | - | 758 W/m² | - |
| 1788547606 | 34.44° C | 53% | 1014.7 hPa | 0 mm | - | 768 W/m² | - |
| 1788547003 | 34.44° C | 53% | 1014.7 hPa | 0 mm | - | 771 W/m² | - |
| 1788546398 | 34.44° C | 53% | 1014.8 hPa | 0 mm | - | 772 W/m² | - |
| 1788545795 | 35° C | 51% | 1015.2 hPa | 0 mm | - | 774 W/m² | - |
| 1788545191 | 35° C | 52% | 1015 hPa | 0 mm | - | 774 W/m² | - |
| 1788544591 | 34.44° C | 53% | 1015.3 hPa | 0 mm | - | 768 W/m² | - |
| 1788543989 | 33.89° C | 55% | 1015.3 hPa | 0 mm | - | 765 W/m² | - |
| 1788543387 | 33.89° C | 56% | 1015.6 hPa | 0 mm | - | 756 W/m² | - |
| 1788542784 | 33.89° C | 58% | 1015.9 hPa | 0 mm | - | 744 W/m² | - |
| 1788542185 | 32.78° C | 61% | 1015.7 hPa | 0 mm | - | 734 W/m² | - |
| 1788541582 | 32.78° C | 62% | 1016.2 hPa | 0 mm | - | 719 W/m² | - |
| 1788540982 | 32.78° C | 63% | 1016 hPa | 0 mm | - | 705 W/m² | - |
| 1788540381 | 32.22° C | 65% | 1016 hPa | 0 mm | - | 684 W/m² | - |
| 1788539779 | 32.22° C | 67% | 1015.6 hPa | 0 mm | - | 665 W/m² | - |
| 1788539173 | 31.67° C | 69% | 1016 hPa | 0 mm | - | 636 W/m² | - |
| 1788538570 | 31.67° C | 70% | 1016 hPa | 0 mm | - | 613 W/m² | - |
* Rain latest hour (hover to see other rain measurements)
** Current wind speed in m/s (hover to see current wind gust speed)